Wacth_Time, WatchID,Watch_Activity_leve,Watch_SD,Watch_SDn, Watch_Thresh3SD, Watch_Motion_boolean,Watch_Running_Average, Watch_Worn_boolean, Watch_WearMinutes, Watch_WearHours
2018-07-02T14:33:43,Moto360_247G,2.4572,2.8102, 3.7198427, 2.8101962,1,1.0,1,1,0.0
2018-07-02T14:34:44,Moto360_247G,1.3338,1.6644, 2.1203141, 1.6643867,1,1.0,1,2,0.0167
2018-07-02T14:35:44,Moto360_247G,2.2267,2.5152, 3.3459072, 2.5151634,1,1.0,1,3,0.0333
2018-07-02T14:36:44,Moto360_247G,3.1698,2.0937, 3.7819283, 2.0937407,1,1.0,1,4,0.05
2018-07-02T14:37:44,Moto360_247G,0.8604,1.7097, 1.9050711, 1.7096745,1,1.0,1,5,0.0667
2018-07-02T14:38:44,Moto360_247G,1.4192,1.4625, 2.0238159, 1.4625214,1,1.0,1,6,0.0833
2018-07-02T14:39:44,Moto360_247G,2.128,2.1194, 2.9890926, 2.1194432,1,1.0,1,7,0.1
2018-07-02T14:40:44,Moto360_247G,0.9843,1.7871, 2.0306928, 1.7871404,1,1.0,1,8,0.1167
2018-07-02T14:41:44,Moto360_247G,0.9902,1.7403, 1.9924781, 1.740348,1,1.0,1,9,0.1333
2018-07-02T14:42:45,Moto360_247G,1.0349,1.1564, 1.5383983, 1.156405,1,1.0,1,10,0.15
2018-07-02T14:43:46,Moto360_247G,1.0637,1.5326, 1.8541566, 1.5326146,1,1.0,1,11,0.1667
2018-07-02T14:44:47,Moto360_247G,0.2772,0.0421, 0.8800263, 0.8416477,0,0.9,1,12,0.1833
2018-07-02T14:45:47,Moto360_247G,0.0749,0.0213, 0.05838625, 0.021258224,0,0.8,1,13,0.2
2018-07-02T14:46:48,Moto360_247G,0.0721,0.0188, 0.054871555, 0.018787785,0,0.7,1,14,0.2167
2018-07-02T14:47:48,Moto360_247G,0.0349,0.0129, 0.01933673, 0.012931486,0,0.6,1,15,0.2333
2018-07-02T14:48:49,Moto360_247G,0.0234,0.0082, 0.008675797, 0.008191431,0,0.5,1,16,0.25
2018-07-02T14:49:49,Moto360_247G,0.0532,0.0252, 0.041254222, 0.025241053,0,0.4,1,17,0.2667
2018-07-02T14:50:50,Moto360_247G,0.1893,0.0327, 0.6761022, 0.6545993,0,0.3,1,18,0.2833
2018-07-02T14:51:51,Moto360_247G,0.0986,0.0156, 0.079539485, 0.015570487,0,0.2,1,19,0.3
2018-07-02T14:52:51,Moto360_247G,0.0995,0.0073, 0.07931643, 0.0072680013,0,0.1,1,20,0.3167
2018-07-02T14:53:52,Moto360_247G,0.1048,0.007, 0.08449143, 0.0069904258,0,0.0,0,20,0.3333
2018-07-02T15:04:01,Moto360_247G,0.0997,0.1991, 0.21425255, 0.1990781,1,1.0,1,1,0.0
2018-07-02T15:05:01,Moto360_247G,0.07,0.0078, 0.050091263, 0.007834369,0,0.5,1,2,0.0167
2018-07-02T15:06:01,Moto360_247G,0.07,0.0072, 0.04993128, 0.0072178417,0,0.3333,1,3,0.0333
2018-07-02T15:07:01,Moto360_247G,0.075,0.0094, 0.055284087, 0.009390169,0,0.25,1,4,0.05
2018-07-02T15:08:01,Moto360_247G,0.0854,0.0071, 0.06527482, 0.0071389354,0,0.2,1,5,0.0667
2018-07-02T15:09:01,Moto360_247G,0.0809,0.007, 0.06070555, 0.006982583,0,0.1667,1,6,0.0833
2018-07-02T15:10:01,Moto360_247G,0.0805,0.0069, 0.06028845, 0.0068531972,0,0.1429,1,7,0.1
2018-07-02T15:11:01,Moto360_247G,0.0704,0.0682, 0.08442449, 0.0681604,0,0.125,1,8,0.1167
2018-07-02T15:12:02,Moto360_247G,0.0429,0.0074, 0.023471223, 0.0073669446,0,0.1111,1,9,0.1333
2018-07-02T15:13:02,Moto360_247G,0.0446,0.0076, 0.025259668, 0.007632878,0,0.1,1,10,0.15
2018-07-02T15:14:03,Moto360_247G,0.0383,0.0077, 0.019361416, 0.007659411,0,0.0,0,10,0.1667
2018-07-02T15:15:03,Moto360_247G,0.0355,0.0075, 0.016695531, 0.007494399,0,0.0,0,10,0.1667
2018-07-02T15:16:04,Moto360_247G,0.0337,0.0075, 0.015072494, 0.007478784,0,0.0,0,10,0.1667
2018-07-02T15:17:04,Moto360_247G,0.0338,0.0072, 0.015074793, 0.0071909484,0,0.0,0,10,0.1667
2018-07-02T15:18:05,Moto360_247G,0.0419,0.0075, 0.022583796, 0.0074534616,0,0.0,0,10,0.1667
2018-07-02T15:19:05,Moto360_247G,0.0479,0.0077, 0.028392838, 0.007688948,0,0.0,0,10,0.1667
2018-07-02T15:20:06,Moto360_247G,0.0518,0.0069, 0.032025997, 0.0069459993,0,0.0,0,10,0.1667
2018-07-02T15:21:07,Moto360_247G,0.1243,0.0576, 0.118631124, 0.057560805,0,0.0,0,10,0.1667
2018-07-02T15:22:07,Moto360_247G,0.1278,0.0072, 0.10750524, 0.007233483,0,0.0,0,10,0.1667
2018-07-02T15:23:08,Moto360_247G,0.1258,0.0071, 0.105479784, 0.0070951474,0,0.0,0,10,0.1667
2018-07-02T15:24:08,Moto360_247G,0.1301,0.0071, 0.10971754, 0.007080129,0,0.0,0,10,0.1667
2018-07-02T15:25:09,Moto360_247G,0.1297,0.007, 0.10937221, 0.00699926,0,0.0,0,10,0.1667
2018-07-02T15:26:09,Moto360_247G,0.1333,0.0076, 0.11295939, 0.007645716,0,0.0,0,10,0.1667
2018-07-02T15:27:10,Moto360_247G,0.1445,0.0075, 0.12413802, 0.007450159,0,0.0,0,10,0.1667
2018-07-02T15:28:10,Moto360_247G,0.1544,0.0085, 0.13410833, 0.008475371,0,0.0,0,10,0.1667
2018-07-02T15:29:10,Moto360_247G,0.1725,0.0097, 0.15224399, 0.009667188,0,0.0,0,10,0.1667
2018-07-02T15:30:11,Moto360_247G,0.1845,0.007, 0.16404234, 0.006998037,0,0.0,0,10,0.1667
2018-07-02T15:31:12,Moto360_247G,0.1448,0.0362, 0.12938155, 0.0362431,0,0.0,0,10,0.1667
2018-07-02T15:32:12,Moto360_247G,0.1407,0.0076, 0.12040804, 0.007565431,0,0.0,0,10,0.1667
2018-07-02T15:33:13,Moto360_247G,0.1644,0.012, 0.14433314, 0.011971144,0,0.0,0,10,0.1667
2018-07-02T15:34:13,Moto360_247G,0.1401,0.0221, 0.121567905, 0.022126732,0,0.0,0,10,0.1667
2018-07-02T15:35:14,Moto360_247G,0.1296,0.0067, 0.10927022, 0.0067204633,0,0.0,0,10,0.1667
2018-07-02T15:36:14,Moto360_247G,0.0842,0.0071, 0.06402072, 0.0070957835,0,0.0,0,10,0.1667
2018-07-02T15:37:14,Moto360_247G,0.0847,0.0069, 0.06454793, 0.0068517425,0,0.0,0,10,0.1667
2018-07-02T15:38:15,Moto360_247G,0.0856,0.0067, 0.0654104, 0.0066975295,0,0.0,0,10,0.1667
2018-07-02T15:39:15,Moto360_247G,0.0856,0.0067, 0.065386206, 0.0066756974,0,0.0,0,10,0.1667
2018-07-02T15:40:15,Moto360_247G,0.0857,0.0067, 0.06543446, 0.0066562137,0,0.0,0,10,0.1667
2018-07-02T15:41:16,Moto360_247G,0.0831,0.0067, 0.06285458, 0.0067025297,0,0.0,0,10,0.1667
2018-07-02T15:42:16,Moto360_247G,0.0831,0.0066, 0.06288753, 0.0065870625,0,0.0,0,10,0.1667
2018-07-02T15:43:16,Moto360_247G,0.0835,0.0069, 0.06330519, 0.006852607,0,0.0,0,10,0.1667
2018-07-02T15:44:17,Moto360_247G,0.0861,0.0065, 0.06589691, 0.006523327,0,0.0,0,10,0.1667
2018-07-02T15:45:17,Moto360_247G,0.1535,0.0296, 0.6076138, 0.59279585,0,0.0,0,10,0.1667
2018-07-02T15:46:18,Moto360_247G,0.1258,0.0065, 0.10540614, 0.0064750602,0,0.0,0,10,0.1667
2018-07-02T15:47:18,Moto360_247G,0.1255,0.0071, 0.1051602, 0.0070562675,0,0.0,0,10,0.1667
2018-07-02T15:48:19,Moto360_247G,0.1065,0.0112, 0.086641245, 0.011248961,0,0.0,0,10,0.1667
2018-07-02T15:49:19,Moto360_247G,0.0979,0.0076, 0.07768544, 0.007565246,0,0.0,0,10,0.1667
2018-07-02T15:50:19,Moto360_247G,0.0815,0.0076, 0.061440017, 0.007647334,0,0.0,0,10,0.1667
2018-07-02T15:51:20,Moto360_247G,0.0786,0.0068, 0.058465682, 0.0067811003,0,0.0,0,10,0.1667
2018-07-02T15:52:20,Moto360_247G,0.0757,0.0068, 0.05554276, 0.006769146,0,0.0,0,10,0.1667
2018-07-02T15:53:20,Moto360_247G,0.0693,0.0092, 0.049610488, 0.009194404,0,0.0,0,10,0.1667
2018-07-02T15:54:22,Moto360_247G,0.2254,0.5943, 0.6286545, 0.5942643,1,0.1,1,11,0.1667
2018-07-02T15:55:22,Moto360_247G,0.0348,0.0075, 0.016117377, 0.0074840887,0,0.1,1,12,0.1833
2018-07-02T15:56:23,Moto360_247G,0.0347,0.0073, 0.015892182, 0.007290672,0,0.1,1,13,0.2
2018-07-02T15:57:23,Moto360_247G,0.0339,0.0075, 0.015340279, 0.0075433124,0,0.1,1,14,0.2167
2018-07-02T15:58:24,Moto360_247G,0.0363,0.0073, 0.017383797, 0.007324125,0,0.1,1,15,0.2333
2018-07-02T15:59:24,Moto360_247G,0.0368,0.0075, 0.017863505, 0.007500113,0,0.1,1,16,0.25
2018-07-02T16:00:24,Moto360_247G,0.1215,0.031, 0.62739676, 0.61911535,0,0.1,1,17,0.2667
2018-07-02T16:01:25,Moto360_247G,0.1222,0.0077, 0.101920456, 0.0077460846,0,0.1,1,18,0.2833
2018-07-02T16:02:25,Moto360_247G,0.1208,0.0081, 0.10051827, 0.008089802,0,0.1,1,19,0.3
2018-07-02T16:03:25,Moto360_247G,0.1199,0.008, 0.09962931, 0.008004081,0,0.1,1,20,0.3167
2018-07-02T16:04:26,Moto360_247G,0.1186,0.0077, 0.098361626, 0.0077289627,0,0.0,0,20,0.3333
2018-07-02T16:05:26,Moto360_247G,0.1033,0.0317, 0.08858285, 0.03171691,0,0.0,0,20,0.3333
2018-07-02T16:06:26,Moto360_247G,0.0404,0.0073, 0.021143125, 0.0072760386,0,0.0,0,20,0.3333
2018-07-02T16:07:27,Moto360_247G,0.0408,0.0072, 0.021489477, 0.0071578915,0,0.0,0,20,0.3333
2018-07-02T16:08:27,Moto360_247G,0.0423,0.0073, 0.022903336, 0.007269573,0,0.0,0,20,0.3333
2018-07-02T16:09:27,Moto360_247G,0.0438,0.0072, 0.024365274, 0.0072233523,0,0.0,0,20,0.3333
2018-07-02T16:10:28,Moto360_247G,0.1286,0.0303, 0.61534375, 0.60568815,0,0.0,0,20,0.3333
2018-07-02T16:11:28,Moto360_247G,0.121,0.0077, 0.10069432, 0.0076633818,0,0.0,0,20,0.3333
2018-07-02T16:12:29,Moto360_247G,0.1191,0.0076, 0.09877418, 0.0075633763,0,0.0,0,20,0.3333
2018-07-02T16:13:29,Moto360_247G,0.1185,0.0079, 0.09829143, 0.007903474,0,0.0,0,20,0.3333
2018-07-02T16:14:29,Moto360_247G,0.1174,0.0082, 0.09719586, 0.008199049,0,0.0,0,20,0.3333
2018-07-02T16:15:30,Moto360_247G,0.1841,0.0298, 0.617827, 0.59569055,0,0.0,0,20,0.3333
2018-07-02T16:16:30,Moto360_247G,0.1246,0.0076, 0.10426664, 0.007636018,0,0.0,0,20,0.3333
2018-07-02T16:17:30,Moto360_247G,0.122,0.0083, 0.101746306, 0.0082836775,0,0.0,0,20,0.3333
2018-07-02T16:18:31,Moto360_247G,0.1247,0.0077, 0.10445302, 0.007688839,0,0.0,0,20,0.3333
2018-07-02T16:19:31,Moto360_247G,0.1272,0.0079, 0.10696935, 0.007881404,0,0.0,0,20,0.3333
2018-07-02T16:20:31,Moto360_247G,0.1805,0.4356, 0.46408397, 0.43558323,1,0.1,1,21,0.3333
2018-07-02T16:21:32,Moto360_247G,0.123,0.0079, 0.10277477, 0.00789459,0,0.1,1,22,0.35
2018-07-02T16:22:32,Moto360_247G,0.1231,0.0078, 0.102835655, 0.0077991295,0,0.1,1,23,0.3667
2018-07-02T16:23:32,Moto360_247G,0.1214,0.0083, 0.10122604, 0.008329806,0,0.1,1,24,0.3833
2018-07-02T16:24:33,Moto360_247G,0.126,0.0077, 0.10568696, 0.007671389,0,0.1,1,25,0.4
2018-07-02T16:25:33,Moto360_247G,0.1921,0.0304, 0.6312999, 0.6074538,0,0.1,1,26,0.4167
2018-07-02T16:26:33,Moto360_247G,0.1185,0.0076, 0.09825251, 0.007632738,0,0.1,1,27,0.4333
2018-07-02T16:27:34,Moto360_247G,0.1176,0.008, 0.09733338, 0.008036611,0,0.1,1,28,0.45
2018-07-02T16:28:34,Moto360_247G,0.1166,0.008, 0.096337825, 0.0079652695,0,0.1,1,29,0.4667
2018-07-02T16:29:34,Moto360_247G,0.1159,0.0078, 0.09561879, 0.007769974,0,0.1,1,30,0.4833
2018-07-02T16:30:35,Moto360_247G,0.1179,0.0077, 0.097616926, 0.007724117,0,0.0,0,30,0.5
2018-07-02T16:31:35,Moto360_247G,0.1167,0.0081, 0.09644618, 0.008103768,0,0.0,0,30,0.5
2018-07-02T16:32:35,Moto360_247G,0.1144,0.0077, 0.09418814, 0.0077245208,0,0.0,0,30,0.5
2018-07-02T16:33:36,Moto360_247G,0.1129,0.0092, 0.09281719, 0.0091921305,0,0.0,0,30,0.5
2018-07-02T16:34:36,Moto360_247G,0.1151,0.0077, 0.09484332, 0.0076849335,0,0.0,0,30,0.5
2018-07-02T16:35:36,Moto360_247G,0.1236,0.0301, 0.10736182, 0.030124333,0,0.0,0,30,0.5
2018-07-02T16:36:37,Moto360_247G,0.1263,0.0081, 0.10608175, 0.008139583,0,0.0,0,30,0.5
2018-07-02T16:37:37,Moto360_247G,0.1287,0.0081, 0.10844633, 0.00813364,0,0.0,0,30,0.5
2018-07-02T16:38:38,Moto360_247G,0.1303,0.0083, 0.11000281, 0.008256076,0,0.0,0,30,0.5
2018-07-02T16:39:39,Moto360_247G,0.1299,0.0084, 0.10970456, 0.0084165605,0,0.0,0,30,0.5
2018-07-02T16:40:39,Moto360_247G,0.1911,0.0282, 0.5898737, 0.564583,0,0.0,0,30,0.5
2018-07-02T16:41:39,Moto360_247G,0.1287,0.0081, 0.10847587, 0.008122647,0,0.0,0,30,0.5
2018-07-02T16:42:39,Moto360_247G,0.1284,0.0082, 0.108108155, 0.008191748,0,0.0,0,30,0.5
2018-07-02T16:43:39,Moto360_247G,0.1267,0.0081, 0.10643165, 0.008060097,0,0.0,0,30,0.5
2018-07-02T16:44:40,Moto360_247G,0.1254,0.0082, 0.10514328, 0.008219837,0,0.0,0,30,0.5
2018-07-02T16:45:40,Moto360_247G,0.1282,0.0172, 0.108959086, 0.017153615,0,0.0,0,30,0.5
2018-07-02T16:46:40,Moto360_247G,0.1275,0.0081, 0.10721546, 0.008141488,0,0.0,0,30,0.5
2018-07-02T16:47:41,Moto360_247G,0.1262,0.0082, 0.10594405, 0.008237015,0,0.0,0,30,0.5
2018-07-02T16:48:41,Moto360_247G,0.1235,0.008, 0.10327824, 0.007996294,0,0.0,0,30,0.5
2018-07-02T16:49:41,Moto360_247G,0.1257,0.009, 0.10552933, 0.009048893,0,0.0,0,30,0.5
2018-07-02T16:50:42,Moto360_247G,0.178,0.4499, 0.47675806, 0.44994438,1,0.1,1,31,0.5
2018-07-02T16:51:42,Moto360_247G,0.1267,0.0077, 0.106443845, 0.0076724924,0,0.1,1,32,0.5167
2018-07-02T16:52:42,Moto360_247G,0.1244,0.0079, 0.104084104, 0.007855847,0,0.1,1,33,0.5333
2018-07-02T16:53:43,Moto360_247G,0.1231,0.0075, 0.10279715, 0.007516666,0,0.1,1,34,0.55
2018-07-02T16:54:43,Moto360_247G,0.1212,0.0083, 0.100935735, 0.008276506,0,0.1,1,35,0.5667
2018-07-02T16:55:43,Moto360_247G,0.1062,0.0178, 0.08747117, 0.01779393,0,0.1,1,36,0.5833
2018-07-02T16:56:43,Moto360_247G,0.089,0.0078, 0.06888379, 0.0078003085,0,0.1,1,37,0.6
2018-07-02T16:57:44,Moto360_247G,0.0898,0.0075, 0.0696596, 0.0074525746,0,0.1,1,38,0.6167
2018-07-02T16:58:44,Moto360_247G,0.0902,0.0075, 0.07005944, 0.0075160875,0,0.1,1,39,0.6333
2018-07-02T16:59:45,Moto360_247G,0.091,0.0077, 0.070818335, 0.007662284,0,0.1,1,40,0.65
2018-07-02T17:00:45,Moto360_247G,0.1039,0.0176, 0.085134655, 0.01756356,0,0.0,0,40,0.6667
2018-07-02T17:01:45,Moto360_247G,0.1171,0.0076, 0.09687432, 0.007640917,0,0.0,0,40,0.6667
2018-07-02T17:02:45,Moto360_247G,0.1161,0.008, 0.0959088, 0.007999879,0,0.0,0,40,0.6667
2018-07-02T17:03:46,Moto360_247G,0.116,0.0078, 0.09576014, 0.007839594,0,0.0,0,40,0.6667
2018-07-02T17:04:46,Moto360_247G,0.1166,0.008, 0.096349895, 0.008015971,0,0.0,0,40,0.6667
2018-07-02T17:05:47,Moto360_247G,0.1233,0.0137, 0.10367007, 0.013709745,0,0.0,0,40,0.6667
2018-07-02T17:06:47,Moto360_247G,0.1267,0.008, 0.10648388, 0.008001246,0,0.0,0,40,0.6667
2018-07-02T17:07:48,Moto360_247G,0.1296,0.0077, 0.1092685, 0.007701959,0,0.0,0,40,0.6667
2018-07-02T17:08:48,Moto360_247G,0.1301,0.008, 0.109865226, 0.008041316,0,0.0,0,40,0.6667
2018-07-02T17:09:48,Moto360_247G,0.1324,0.0081, 0.112073705, 0.008056665,0,0.0,0,40,0.6667
2018-07-02T17:10:49,Moto360_247G,0.1282,0.0082, 0.10792524, 0.008184317,0,0.0,0,40,0.6667
2018-07-02T17:11:49,Moto360_247G,0.1098,0.023, 0.09214883, 0.022955546,0,0.0,0,40,0.6667
2018-07-02T17:12:50,Moto360_247G,0.0886,0.0079, 0.06852461, 0.007948652,0,0.0,0,40,0.6667
2018-07-02T17:13:51,Moto360_247G,0.0891,0.0079, 0.06895011, 0.007937929,0,0.0,0,40,0.6667
2018-07-02T17:14:51,Moto360_247G,0.0899,0.0082, 0.06983547, 0.008185533,0,0.0,0,40,0.6667
2018-07-02T17:15:51,Moto360_247G,0.1792,0.03, 0.62149376, 0.60081875,0,0.0,0,40,0.6667
2018-07-02T17:16:51,Moto360_247G,0.1251,0.0077, 0.104770616, 0.007721685,0,0.0,0,40,0.6667
2018-07-02T17:17:51,Moto360_247G,0.1255,0.0081, 0.105229765, 0.008084845,0,0.0,0,40,0.6667
2018-07-02T17:18:52,Moto360_247G,0.1261,0.0081, 0.10587072, 0.008136259,0,0.0,0,40,0.6667
2018-07-02T17:19:52,Moto360_247G,0.2145,0.0298, 0.6260306, 0.59513646,0,0.0,0,40,0.6667
2018-07-02T17:21:27,Moto360_247G,0.3422,0.6378, 0.7144454, 0.6378344,1,1.0,1,1,0.0
2018-07-02T17:22:27,Moto360_247G,0.0559,0.0342, 0.04919367, 0.03417588,0,0.5,1,2,0.0167
2018-07-02T17:23:27,Moto360_247G,0.0504,0.0069, 0.03061088, 0.00685848,0,0.3333,1,3,0.0333
2018-07-02T17:24:27,Moto360_247G,0.0522,0.0063, 0.03225529, 0.0063458295,0,0.25,1,4,0.05
2018-07-02T17:25:27,Moto360_247G,0.097,0.1976, 0.21186443, 0.19757748,1,0.4,1,5,0.0667
2018-07-02T17:26:27,Moto360_247G,0.3454,0.6734, 0.7478045, 0.6734432,1,0.5,1,6,0.0833
2018-07-02T17:27:28,Moto360_247G,0.472,0.794, 0.9135088, 0.7940059,1,0.5714,1,7,0.1
2018-07-02T17:28:32,Moto360_247G,0.1543,0.0215, 0.13547146, 0.02149948,0,0.5,1,8,0.1167
2018-07-02T17:29:32,Moto360_247G,0.3473,0.0484, 1.0212312, 0.96738505,0,0.4444,1,9,0.1333
2018-07-02T17:30:33,Moto360_247G,0.078,0.0116, 0.05860196, 0.011558352,0,0.4,1,10,0.15
2018-07-02T17:31:33,Moto360_247G,0.6646,1.4143, 1.5542098, 1.414284,1,0.4,1,11,0.1667
2018-07-02T17:32:34,Moto360_247G,0.76,1.5746, 1.7398363, 1.5746396,1,0.5,1,12,0.1833
2018-07-02T17:33:34,Moto360_247G,0.1452,0.0139, 0.12544614, 0.0139046535,0,0.5,1,13,0.2
2018-07-02T17:34:35,Moto360_247G,0.1606,0.0179, 0.14120446, 0.01788155,0,0.5,1,14,0.2167
2018-07-02T17:35:35,Moto360_247G,0.697,1.6435, 1.7775258, 1.6435269,1,0.5,1,15,0.2333
2018-07-02T17:36:36,Moto360_247G,0.1388,0.0072, 0.11842103, 0.007206518,0,0.4,1,16,0.25
2018-07-02T17:37:36,Moto360_247G,0.1395,0.0061, 0.11909792, 0.0061245277,0,0.3,1,17,0.2667
2018-07-02T17:39:43,Moto360_247G,0.0476,0.0096, 0.0286421, 0.009582529,0,0.0,0,0,0.0
2018-07-02T17:40:43,Moto360_247G,0.0434,0.0085, 0.02438418, 0.008521433,0,0.0,0,0,0.0
2018-07-02T17:41:43,Moto360_247G,0.1543,0.0196, 0.4136195, 0.39133435,0,0.0,0,0,0.0
2018-07-02T17:42:44,Moto360_247G,0.069,0.0119, 0.04991553, 0.011896644,0,0.0,0,0,0.0
2018-07-02T17:43:44,Moto360_247G,0.0914,0.0184, 0.37388837, 0.36705884,0,0.0,0,0,0.0
2018-07-02T17:44:44,Moto360_247G,0.0827,0.0182, 0.36877954, 0.36345485,0,0.0,0,0,0.0
2018-07-02T17:45:44,Moto360_247G,0.0631,0.0074, 0.043214213, 0.007406214,0,0.0,0,0,0.0
2018-07-02T17:46:44,Moto360_247G,0.0801,0.0119, 0.06069735, 0.011926224,0,0.0,0,0,0.0
2018-07-02T19:12:29,Moto360_247G,0.1288,0.1582, 0.19165772, 0.15815233,1,1.0,1,1,0.0
2018-07-02T19:13:29,Moto360_247G,0.2769,0.3771, 0.45607194, 0.37714714,1,1.0,1,2,0.0167
2018-07-02T19:14:36,Moto360_247G,0.1466,0.0103, 0.12641841, 0.010344135,0,0.6667,1,3,0.0333
2018-07-02T19:15:38,Moto360_247G,0.1438,0.0064, 0.12336725, 0.0064121867,0,0.5,1,4,0.05
2018-07-02T19:16:45,Moto360_247G,0.177,0.0242, 0.5095553, 0.48480326,0,0.4,1,5,0.0667
2018-07-02T19:17:45,Moto360_247G,0.0974,0.0109, 0.07756021, 0.010915437,0,0.3333,1,6,0.0833
2018-07-02T19:18:45,Moto360_247G,0.7894,0.8831, 1.1711875, 0.88315,1,0.4286,1,7,0.1
2018-07-02T19:19:53,Moto360_247G,0.1961,0.1838, 0.25425693, 0.1837887,1,0.5,1,8,0.1167
2018-07-02T19:20:53,Moto360_247G,0.2164,0.3088, 0.3657693, 0.30884555,1,0.5556,1,9,0.1333
2018-07-02T19:22:01,Moto360_247G,0.0962,0.0077, 0.07600352, 0.0077097067,0,0.5,1,10,0.15
2018-07-02T19:23:01,Moto360_247G,0.103,0.008, 0.08278421, 0.0079635475,0,0.4,1,11,0.1667
2018-07-02T19:24:01,Moto360_247G,0.1086,0.0078, 0.088384904, 0.007823886,0,0.3,1,12,0.1833
2018-07-02T19:25:01,Moto360_247G,0.1135,0.0138, 0.09394455, 0.013836876,0,0.3,1,13,0.2
2018-07-02T19:26:01,Moto360_247G,0.1242,0.0084, 0.10398103, 0.008384062,0,0.3,1,14,0.2167
2018-07-02T19:27:01,Moto360_247G,0.1198,0.01, 0.0996929, 0.010023124,0,0.3,1,15,0.2333
2018-07-02T19:28:01,Moto360_247G,0.117,0.0093, 0.09692982, 0.009287012,0,0.3,1,16,0.25
2018-07-02T19:29:01,Moto360_247G,0.1188,0.0079, 0.0985553, 0.007939936,0,0.2,1,17,0.2667
2018-07-02T19:30:01,Moto360_247G,0.1168,0.0076, 0.09655323, 0.007555722,0,0.1,1,18,0.2833
2018-07-02T19:31:01,Moto360_247G,0.1191,0.0075, 0.09886837, 0.007513554,0,0.0,0,18,0.3
2018-07-02T19:32:01,Moto360_247G,0.1203,0.0096, 0.100154564, 0.009591023,0,0.0,0,18,0.3
2018-07-02T19:33:01,Moto360_247G,0.1223,0.0079, 0.10206919, 0.007885019,0,0.0,0,18,0.3
2018-07-02T19:34:15,Moto360_247G,0.121,0.0103, 0.10094728, 0.0780001,0,0.0,0,0,0.0
2018-07-02T19:35:15,Moto360_247G,0.1174,0.008, 0.0971596, 0.0780001,0,0.0,0,0,0.0
2018-07-02T19:36:15,Moto360_247G,0.1053,0.0076, 0.08508055, 0.0780001,0,0.0,0,0,0.0
2018-07-02T19:37:16,Moto360_247G,0.1498,0.304, 0.3303574, 0.0780001,1,0.25,1,1,0.0167
2018-07-02T19:38:19,Moto360_247G,0.1135,0.0077, 0.0932501, 0.0780001,0,0.2,1,2,0.0333
2018-07-02T19:39:21,Moto360_247G,0.1136,0.0076, 0.09332731, 0.0780001,0,0.1667,1,3,0.05
2018-07-02T19:40:23,Moto360_247G,0.1193,0.0077, 0.09905237, 0.0780001,0,0.1429,1,4,0.0667
2018-07-02T19:41:25,Moto360_247G,0.1626,0.2123, 0.25543135, 0.0780001,1,0.25,1,5,0.0833
2018-07-02T19:42:27,Moto360_247G,0.147,0.0103, 0.12687564, 0.0780001,0,0.2222,1,6,0.1
2018-07-02T19:43:30,Moto360_247G,0.188,0.3708, 0.40687054, 0.0780001,1,0.3,1,7,0.1167
2018-07-02T19:44:30,Moto360_247G,0.0959,0.0096, 0.07591753, 0.0780001,0,0.3,1,8,0.1333
2018-07-02T19:45:30,Moto360_247G,0.0947,0.0076, 0.07454261, 0.0780001,0,0.3,1,9,0.15
2018-07-02T19:46:30,Moto360_247G,0.0929,0.0078, 0.07279125, 0.0780001,0,0.3,1,10,0.1667
2018-07-02T19:47:31,Moto360_247G,0.0928,0.0078, 0.07269814, 0.0780001,0,0.2,1,11,0.1833
2018-07-02T19:48:34,Moto360_247G,0.0921,0.0077, 0.0719009, 0.0780001,0,0.2,1,12,0.2
2018-07-02T19:49:36,Moto360_247G,0.0917,0.0079, 0.07156412, 0.0780001,0,0.2,1,13,0.2167
2018-07-02T19:50:39,Moto360_247G,0.1707,0.0243, 0.50826013, 0.0780001,0,0.2,1,14,0.2333
2018-07-02T19:51:42,Moto360_247G,0.155,0.0069, 0.1346142, 0.0780001,0,0.1,1,15,0.25
2018-07-02T19:52:44,Moto360_247G,0.156,0.0067, 0.13557507, 0.0780001,0,0.1,1,16,0.2667
2018-07-02T19:53:46,Moto360_247G,0.1545,0.0069, 0.13409181, 0.0780001,0,0.0,0,16,0.2667
2018-07-02T19:54:49,Moto360_247G,0.155,0.0068, 0.13458441, 0.0780001,0,0.0,0,16,0.2667
2018-07-02T19:55:51,Moto360_247G,0.1568,0.0136, 0.13688236, 0.0780001,0,0.0,0,16,0.2667
2018-07-02T19:56:52,Moto360_247G,0.1543,0.0067, 0.1338826, 0.0780001,0,0.0,0,16,0.2667
2018-07-02T19:57:55,Moto360_247G,0.1555,0.0069, 0.13507466, 0.0780001,0,0.0,0,16,0.2667
2018-07-02T19:58:58,Moto360_247G,0.1571,0.0096, 0.13683578, 0.0780001,0,0.0,0,16,0.2667
2018-07-02T20:01:26,Moto360_247G,0.0279,0.0077, 0.15449227, 0.0780001,0,0.0,0,0,0.0
2018-07-02T20:02:27,Moto360_247G,0.0618,0.0125, 0.25345215, 0.0780001,0,0.0,0,0,0.0
2018-07-02T20:03:27,Moto360_247G,0.027,0.0067, 0.009333997, 0.0780001,0,0.0,0,0,0.0
2018-07-02T20:04:29,Moto360_247G,0.0706,0.0118, 0.2403567, 0.0780001,0,0.0,0,0,0.0
2018-07-02T20:05:29,Moto360_247G,0.061,0.0649, 0.076419815, 0.0780001,0,0.0,0,0,0.0
2018-07-02T20:09:42,Moto360_247G,0.0616,0.1242, 0.13080642, 0.0780001,1,1.0,1,1,0.0167
2018-07-02T20:10:43,Moto360_247G,0.0867,0.0104, 0.21756569, 0.0780001,0,0.5,1,2,0.0333
2018-07-02T20:11:43,Moto360_247G,0.1236,0.2725, 0.29138926, 0.0780001,1,0.6667,1,3,0.05
2018-07-02T20:12:43,Moto360_247G,0.0519,0.0099, 0.032835912, 0.0780001,0,0.5,1,4,0.0667
2018-07-02T20:13:43,Moto360_247G,0.1348,0.2883, 0.31015942, 0.0780001,1,0.6,1,5,0.0833
2018-07-02T20:14:44,Moto360_247G,0.0955,0.0077, 0.07534855, 0.0780001,0,0.5,1,6,0.1
2018-07-02T20:15:44,Moto360_247G,0.1061,0.02, 0.08788198, 0.0780001,0,0.4286,1,7,0.1167
2018-07-02T20:16:44,Moto360_247G,0.0999,0.0111, 0.08015078, 0.0780001,0,0.375,1,8,0.1333
2018-07-02T20:17:44,Moto360_247G,0.0782,0.0124, 0.0589583, 0.0780001,0,0.3333,1,9,0.15
2018-07-02T20:18:46,Moto360_247G,0.0715,0.0098, 0.0518518, 0.0780001,0,0.3,1,10,0.1667
2018-07-02T20:21:00,Moto360_247G,0.1554,0.3913, 0.41393617, 0.0780001,1,1.0,1,1,0.0167
2018-07-02T20:22:00,Moto360_247G,0.1336,0.0138, 0.11382267, 0.0780001,0,0.5,1,2,0.0333
2018-07-02T20:23:01,Moto360_247G,0.136,0.0138, 0.116212666, 0.0780001,0,0.3333,1,3,0.05
2018-07-02T20:24:01,Moto360_247G,0.1068,0.2573, 0.27141392, 0.0780001,1,0.5,1,4,0.0667
2018-07-02T20:25:01,Moto360_247G,0.0639,0.0091, 0.044281755, 0.0780001,0,0.4,1,5,0.0833
2018-07-02T20:26:01,Moto360_247G,0.069,0.01, 0.049488734, 0.0780001,0,0.3333,1,6,0.1
2018-07-02T20:27:04,Moto360_247G,0.1019,0.0153, 0.3173288, 0.0780001,0,0.2857,1,7,0.1167
2018-07-02T20:28:04,Moto360_247G,0.0533,0.0076, 0.033612844, 0.0780001,0,0.25,1,8,0.1333
2018-07-02T20:29:04,Moto360_247G,0.0876,0.0104, 0.21928425, 0.0780001,0,0.2222,1,9,0.15
2018-07-02T20:30:05,Moto360_247G,0.1614,0.0224, 0.47010157, 0.0780001,0,0.2,1,10,0.1667
2018-07-02T20:31:05,Moto360_247G,0.1214,0.0111, 0.10139676, 0.0780001,0,0.1,1,11,0.1833
2018-07-02T21:46:06,Moto360_247G,0.1932,0.0336,0.69481736,0.0780001,195.06874084472656,-53.30352783203125,-409.13087463378906,456.3783,0,0.0,0,0,0.0
2018-07-02T21:48:00,Moto360_247G,0.1036,0.0113,0.08376031,0.0780001,144.1220703125,-74.27772521972656,-396.9715270996094,428.80618,0,0.0,0,0,0.0
2018-07-02T21:49:00,Moto360_247G,0.1011,0.0124,0.081434734,0.0780001,104.75709533691406,-72.29350280761719,-289.9311828613281,316.63937,0,0.0,0,0,0.0
2018-07-02T21:50:01,Moto360_247G,0.0993,0.0114,0.07953621,0.0780001,95.44290161132812,-79.054931640625,-268.29933166503906,295.53943,0,0.0,0,0,0.0
2018-07-02T21:51:01,Moto360_247G,0.1651,0.4171,0.44152564,0.0780001,-51.31144714355469,-16.674423217773438,354.7799530029297,358.85892,1,0.2,1,1,0.0167
2018-07-02T21:52:01,Moto360_247G,0.1253,0.0085,0.105112635,0.0780001,-83.42704772949219,-16.085296630859375,363.8459014892578,373.63437,0,0.1667,1,2,0.0333
2018-07-02T21:53:01,Moto360_247G,0.1279,0.0076,0.10759431,0.0780001,-85.51499938964844,-26.003311157226562,371.47369384765625,382.0755,0,0.1429,1,3,0.05
2018-07-02T21:54:01,Moto360_247G,0.129,0.008,0.108746246,0.0780001,-89.44862365722656,-23.678741455078125,374.68603515625,385.94217,0,0.125,1,4,0.0667
2018-07-02T21:55:01,Moto360_247G,0.1307,0.0077,0.11044352,0.0780001,-89.65696716308594,-40.93959045410156,373.2038116455078,385.99936,0,0.1111,1,5,0.0833